Regional Weather Roundup
Issued by NWS

Home | Current Version | Previous Version | Graphics & Text | Print | Product List | Glossary On
Versions: 1 2 3 4 5 6 7 8 9 10 11 12 13 14 15 16 17 18 19 20 21 22 23 24 25 26 27 28 29 30 31 32 33 34 35 36 37 38 39 40 41 42 43 44 45 46 47 48 49 50
000
ASUS45 KTFX 021910
RWRMT
MONTANA REGIONAL WEATHER ROUNDUP
NATIONAL WEATHER SERVICE GREAT FALLS MT
100 PM MDT SUN AUG 02 2015

NOTE: "FAIR" INDICATES FEW OR NO CLOUDS BELOW 12000 FEET WITH NO
SIGNIFICANT WEATHER AND/OR OBSTRUCTIONS TO VISIBILITY.

MTZ001>007-043-022000-
WEST OF THE DIVIDE

CITY           SKY/WX    TMP DP  RH WIND       PRES   REMARKS
KALISPELL      CLEAR     85  37  18 CALM      29.97F
MISSOULA       SUNNY     79  40  24 CALM      30.02F
BUTTE          SUNNY     83  24  11 NE6       30.15F
MULLAN PASS    SUNNY     78  23  13 VRB6      30.18F
DEER LODGE       N/A     82  34  17 NE5       30.12F
EUREKA           N/A     84  43  23 NW5       29.96F
HAMILTON         N/A     82  41  23 NE6       30.01F
LIBBY            N/A     82  32  16 W3        29.95F
PLAINS           N/A     85  38  18 CALM      29.96F
RONAN            N/A     83  48  29 CALM      30.05F
THOMPSON FALLS   N/A     87  37  17 NE12      29.97F
$$

MTZ008-052>055-022000-
SOUTHWEST MONTANA

CITY           SKY/WX    TMP DP  RH WIND       PRES   REMARKS
BOZEMAN        SUNNY     85  40  20 CALM      30.09F
DILLON         SUNNY     83  42  23 N7        30.11F
W YELLOWSTONE  SUNNY     81  30  16 CALM      30.22S
THREE FORKS      N/A     84  43  23 NE5       30.06F
TWIN BRIDGES     N/A     81  38  21 S5        30.08F
$$

MTZ009-010-012-014-046-048-049-054-022000-
EAST SLOPES AND CENTRAL MONTANA

CITY           SKY/WX    TMP DP  RH WIND       PRES   REMARKS
CUT BANK       SUNNY     77  51  40 SE12G17   30.06F
GREAT FALLS    SUNNY     78  52  40 N7        30.06F
MALMSTROM AFB  SUNNY     75  54  47 NW5       30.06F
HELENA         SUNNY     84  49  29 VRB6      30.05F
CONRAD           N/A     78  56  46 N7        30.09F
$$

MTZ011-013-016-021-045-047-050-051-022000-
NORTH CENTRAL MONTANA

CITY           SKY/WX    TMP DP  RH WIND       PRES   REMARKS
HAVRE          SUNNY     81  50  33 E9        30.03F
LEWISTOWN      SUNNY     79  50  36 SE10G18   30.10F
CHINOOK          N/A     81  50  34 E6        30.04F
FORT BENTON      N/A     79  54  41 E5        30.04F
$$

MTZ017>020-022>027-061-062-022000-
NORTHEAST MONTANA

CITY           SKY/WX    TMP DP  RH WIND       PRES   REMARKS
GLASGOW        SUNNY     80  48  32 N10       30.02F
JORDAN           N/A     81  47  30 CALM      30.04F
SIDNEY         SUNNY    N/A N/A N/A NW13      29.99S
WOLF POINT     SUNNY     82  47  29 N8        30.02F
MALTA            N/A     81  56  42 NE1       30.01F
PLENTYWOOD       N/A     73  50  43 N8G16     30.02F
POPLAR           N/A     77  46  33 NW5       30.02S
SCOBEY           N/A     74  47  38 W7        30.03F
$$

MTZ028>42-056>058-022000-
SOUTHCENTRAL AND SOUTHEAST MONTANA

CITY           SKY/WX    TMP DP  RH WIND       PRES   REMARKS
BAKER          SUNNY     82  47  29 N12       30.03F
BILLINGS       MOSUNNY   80  49  33 NE12      30.07S
LIVINGSTON     SUNNY     87  41  19 E12       30.08S
MILES CITY     SUNNY     83  48  29 NE12G22   30.01F
EKALAKA          N/A     82  45  27 NE7       30.02F
FORSYTH          N/A     81  45  28 NE8G25    30.02R
LAUREL           N/A     82  48  30 NE12      30.04F
ROUNDUP          N/A     81  44  26 E3        29.98F
$$

REGIONAL REPORTS...DAKOTAS

CITY           SKY/WX    TMP DP  RH WIND       PRES   REMARKS
WILLISTON      MOSUNNY   79  50  36 N8G18     30.00S
MINOT          MOSUNNY   73  48  41 N12       29.94F
DICKINSON      SUNNY     78  50  37 N8G17     29.99S
BEACH          FAIR      77  46  33 NW13      30.04S
CROSBY         FAIR      75  50  41 N13       30.00S
BISMARCK       MOSUNNY   78  54  43 N15       29.94F
GRAND FORKS    MOSUNNY   75  51  43 N14G26    29.82R
FARGO          MOSUNNY   77  54  44 N17       29.83R
BUFFALO SD       N/A     82  49  31 NE15G22   29.95F
RAPID CITY     SUNNY     82  55  39 NE10      30.01F
$$

REGIONAL REPORTS...WYOMING/IDAHO/WASHINGTON

CITY           SKY/WX    TMP DP  RH WIND       PRES   REMARKS
GILLETTE       SUNNY     89  41  18 N12       30.03S
SHERIDAN       SUNNY     86  38  18 NW16G23   30.04S
BUFFALO WY     SUNNY     87  41  19 N16G24    30.09S
CODY           SUNNY     82  45  26 NE14      30.11S
YELLOWSTONE LA   N/A     70  40  33 VRB3      30.34F
IDAHO FALLS    SUNNY     90  34  13 E5        30.05F
SALMON         SUNNY     82  39  21 CALM      30.01F
BOISE          SUNNY     95  36  12 CALM      29.90F HX  90
SPOKANE        CLOUDY    91  35  13 CALM      29.92F
$$

REGIONAL REPORTS...ALBERTA

CITY           SKY/WX    TMP DP  RH WIND       PRES   REMARKS
EDMONTON       SUNNY     77  50  38 S7        29.99F
CALGARY        MOSUNNY   77  52  41 S18       30.03F
LETHBRIDGE     SUNNY     75  55  50 E5        30.03F
MEDICINE HAT   MOSUNNY   81  46  30 NE7       30.03F
WATERTON GATE    N/A     75  54  46 NE5         N/A
MILK RIVER       N/A     79  52  38 S10         N/A
$$

REGIONAL REPORTS...SASKATCHEWAN

CITY           SKY/WX    TMP DP  RH WIND       PRES   REMARKS
SWIFT CURRENT  MOSUNNY   70  52  52 NE3       30.06F
REGINA         MOSUNNY   73  52  46 N12G24    30.01S
SASKATOON      PTSUNNY   73  46  38 NW9       30.03F
CYPRESS HILLS    N/A     70  46  43 SW1         N/A
VAL MARIE        N/A     73  50  43 E6          N/A
ROCKGLEN         N/A     70  48  46 N9          N/A
$$


USA.gov is the U.S. government's official web portal to all federal, state and local government web resources and services.